Weather History for Sarasota, FL

Change the Weather History Date:

Monday, October 6, 2014

  Actual Average Record
Temperature  
Mean Temperature 72 °F 79 °F  
Max Temperature 82 °F 87 °F 95 °F (1989)
Min Temperature 61 °F 71 °F 57 °F (1913)
Degree Days  
Heating Degree Days 0 0  
Month to date heating degree days 0 0  
Since 1 July heating degree days 0 0  
Cooling Degree Days 7 14  
Month to date cooling degree days 73 86  
Year to date cooling degree days 3072 2875  
Growing Degree Days 22 (Base 50)    
Moisture  
Dew Point 62 °F    
Average Humidity 71    
Maximum Humidity 90    
Minimum Humidity 54    
Precipitation  
Precipitation 0.00 in 0.12 in 1.32 in (1923)
Month to date precipitation 2.96 0.78  
Year to date precipitation 44.97 46.21  
Sea Level Pressure  
Sea Level Pressure 30.02 in    
Wind  
Wind Speed 7 mph (ENE)    
Max Wind Speed 14 mph    
Max Gust Speed 30 mph    
Visibility 10 miles    
Events      
T = Trace of Precipitation, MM = Missing Value Source: NWS Daily Summary

Daily Weather History Graph

Daily Weather History Graph

Search for Another Location

Airport:

Trip Planner

Search our weather history database for the weather conditions in past years. The results will help you decide how hot, cold, wet, or windy it might be!

Date:

Astronomy

Oct. 06, 2014 Rise Set
Actual Time 7:25 AM EDT 7:10 PM EDT
Civil Twilight 7:02 AM EDT 7:34 PM EDT
Nautical Twilight 6:34 AM EDT 8:01 PM EDT
Astronomical Twilight 6:07 AM EDT 8:28 PM EDT
Moon 5:59 PM EDT (10/6) 5:21 AM EDT (10/6)
Length of Visible Light 12h 32m
Length of Day
11h 45m
Waxing Gibbous, 95% of the Moon is Illuminated
Oct 6
Waxing Gibbous
Oct 8
Full
Oct 15
Last Quarter
Oct 23
New
Oct 30
First Quarter

Hourly Weather History & Observations

Time (EDT) Temp. Heat Index Dew Point Humidity Pressure Visibility Wind Dir Wind Speed Gust Speed Precip Events Conditions
12:53 AM 64.0 °F - 51.1 °F 63% 30.03 in 10.0 mi NE 8.1 mph - N/A   Clear
1:53 AM 63.0 °F - 54.0 °F 72% 30.02 in 10.0 mi ENE 6.9 mph - N/A   Clear
2:53 AM 62.1 °F - 55.9 °F 80% 30.01 in 10.0 mi ENE 6.9 mph - N/A   Clear
3:53 AM 62.1 °F - 57.0 °F 84% 30.00 in 10.0 mi ENE 5.8 mph - N/A   Clear
4:53 AM 62.1 °F - 57.0 °F 84% 30.00 in 10.0 mi ENE 5.8 mph - N/A   Clear
5:53 AM 61.0 °F - 57.9 °F 90% 30.00 in 10.0 mi ENE 5.8 mph - N/A   Clear
6:53 AM 61.0 °F - 57.9 °F 90% 30.03 in 10.0 mi ENE 5.8 mph - N/A   Clear
7:53 AM 62.1 °F - 57.9 °F 86% 30.04 in 10.0 mi ENE 8.1 mph - N/A   Clear
8:53 AM 66.9 °F - 59.0 °F 76% 30.05 in 10.0 mi ENE 11.5 mph - N/A   Clear
9:53 AM 72.0 °F - 60.1 °F 66% 30.06 in 10.0 mi East 11.5 mph - N/A   Clear
10:53 AM 75.9 °F - 61.0 °F 60% 30.06 in 10.0 mi East 11.5 mph - N/A   Clear
11:53 AM 80.1 °F 81.2 °F 62.1 °F 54% 30.06 in 10.0 mi East 9.2 mph - N/A   Clear
12:53 PM 81.0 °F 82.7 °F 64.9 °F 58% 30.04 in 10.0 mi East 10.4 mph - N/A   Clear
1:53 PM 81.0 °F 82.7 °F 64.9 °F 58% 30.02 in 10.0 mi East 6.9 mph - N/A   Clear
2:53 PM 81.0 °F 82.7 °F 64.9 °F 58% 30.01 in 10.0 mi Variable 6.9 mph - N/A   Clear
3:53 PM 82.0 °F 83.8 °F 64.9 °F 56% 30.00 in 10.0 mi East 8.1 mph - N/A   Clear
4:53 PM 82.0 °F 83.8 °F 64.9 °F 56% 29.98 in 10.0 mi ESE 9.2 mph - N/A   Clear
5:53 PM 81.0 °F 83.0 °F 66.0 °F 60% 30.00 in 10.0 mi ESE 4.6 mph - N/A   Clear
6:53 PM 78.1 °F - 66.9 °F 68% 29.99 in 10.0 mi ENE 3.5 mph - N/A   Clear
7:53 PM 77.0 °F - 66.9 °F 71% 30.00 in 10.0 mi ENE 4.6 mph - N/A   Clear
8:53 PM 75.9 °F - 66.9 °F 74% 30.02 in 10.0 mi ENE 3.5 mph - N/A   Scattered Clouds
9:53 PM 73.9 °F - 69.1 °F 85% 30.03 in 10.0 mi East 5.8 mph - N/A   Clear
10:53 PM 75.0 °F - 68.0 °F 79% 30.06 in 10.0 mi ENE 6.9 mph - N/A   Scattered Clouds
11:53 PM 75.0 °F - 66.9 °F 76% 30.06 in 10.0 mi East 9.2 mph - N/A   Overcast